Regional Weather Roundup
Issued by NWS

Home | Current Version | Previous Version | Graphics & Text | Print | Product List | Glossary On
Versions: 1 2 3 4 5 6 7 8 9 10 11 12 13 14 15 16 17 18 19 20 21 22 23 24 25 26 27 28 29 30 31 32 33 34 35 36 37 38 39 40 41 42 43 44 45 46 47 48 49 50
000
ASUS44 KMEG 052200
RWRTN
TENNESSEE HOURLY STATE WEATHER ROUNDUP
NATIONAL WEATHER SERVICE MEMPHIS TN
500 PM CDT THU MAY 05 2016

TNZ002-004-019-021-049-052-054-088>092-052300-
WEST TENNESSEE

CITY           SKY/WX    TMP DP  RH WIND       PRES   REMARKS
MEMPHIS INTL   MOSUNNY   72  38  29 N14       29.94S
NWS MEMPHIS      N/A     69 N/A N/A MISG        N/A
JACKSON        PTSUNNY   64  43  46 N18G26    29.94R
DYERSBURG      MOSUNNY   66  43  42 N18       29.95S
UNION CITY     PTSUNNY   64  43  45 N17       29.96R
LEXINGTON      PTSUNNY   63  39  42 N14       29.92R
$$

TNZ008-025-027-028-033-062-065-066-052300-
NORTH MIDDLE TENNESSEE

CITY           SKY/WX    TMP DP  RH WIND       PRES   REMARKS
NASHVILLE      PTSUNNY   60  39  45 NW14G21   29.92S
CLARKSVILLE    CLOUDY    57  41  55 N14       29.95S
COOKEVILLE     PTSUNNY   54  43  66 N12       29.88R
CROSSVILLE     CLOUDY    49  38  65 N13G23    29.88R
$$

TNZ061-075-076-078-094-096-097-052300-
SOUTH MIDDLE TENNESSEE

CITY           SKY/WX    TMP DP  RH WIND       PRES   REMARKS
TULLAHOMA      PTSUNNY   55  37  50 N15       29.90R
WINCHESTER     PTSUNNY   55  39  54 N13       29.89R
MCMINNVILLE    PTSUNNY   55  39  54 N12       29.89S
COLUMBIA       MOSUNNY   59  43  55 N12       29.91R
SHELBYVILLE    PTSUNNY   57  41  54 N14       29.91R
$$

TNZ017-018-042-046-047-052300-
NORTHEAST TENNESSEE

CITY           SKY/WX    TMP DP  RH WIND       PRES   REMARKS
TRI CITIES     LGT RAIN  52  38  58 N14G20    29.76R
$$

TNZ012-013-036-069-073-074-052300-
CENTRAL EAST TENNESSEE

CITY           SKY/WX    TMP DP  RH WIND       PRES   REMARKS
KNOXVILLE      PTSUNNY   53  41  63 N9        29.82R
OAK RIDGE      PTSUNNY   54  38  54 N10G17    29.86R
GATLINBURG     MOCLDY    52  45  76 VRB6      29.80R
$$

TNZ083-085-099-052300-
SOUTHEAST TENNESSEE

CITY           SKY/WX    TMP DP  RH WIND       PRES   REMARKS
CHATTANOOGA    PTSUNNY   58  37  45 N16G26    29.86R
$$

SKY/WX REPORTED AS FAIR MEANS FEW OR NO CLOUDS BELOW
12 THOUSAND FEET.




USA.gov is the U.S. government's official web portal to all federal, state and local government web resources and services.